Temperature
6 6 5 5 5 5 5 5 5 5 5 5 5 5 5 5 5 5 5 5 5 6 5 5 5 5 5 5 5 5 5 5 5 5 5 5 5 5 5 5 5 5 5
5 5 5 5 5 5 4 4 4 4 4 4 4 4 5 5 5 5 5 5 5 5 5 5 5 5 5 5 5 5 5 5 5 5 4 5 5 5 5 5 5 5 5
5 5 4 4 4 4 4 4 4 4 4 4 4 4 4 4 4 4 4 4 4 4 4 4 4 4 4 4 4 4 4 4 4 4 4 4 4 4 4 4 4 4 4
4 4 4 4 4 4 4 4 4 4 4 4 4 4 4 4 4 4 4 4 4 4 4 4 4 4 4 4 4 4 4 4 3 3 3 3 3 3 3 3 3 3 3
4 4 4 4 4 4 4 3 3 3 3 4 4 4 4 4 4 4 3 3 3 3 3 3 3 3 3 3 3 3 3 3 3 3 3 3 3 3 3 3 3 3 3
4 4 4 4 3 3 3 3 3 3 3 3 3 3 3 3 3 3 3 3 3 3 3 3 3 3 3 3 3 3 3 3 2 2 2 2 2 2 2 2 2 2 2
4 4 3 3 3 3 3 3 3 3 3 3 3 3 3 3 3 3 3 3 3 2 2 2 2 2 2 2 2 2 2 2 2 2 2 2 2 2 2 2 1 1 1
3 3 3 3 3 3 3 3 3 3 2 2 2 2 2 3 2 2 2 2 2 2 2 2 2 2 2 2 2 2 2 2 2 2 2 2 1 1 1 1 1 1 1
3 3 3 2 2 2 2 2 2 2 2 2 2 2 2 2 2 2 2 2 2 2 2 2 2 2 2 1 1 1 1 1 1 1 1 1 1 1 1 1 0 0 -0
2 2 2 2 2 2 2 2 2 2 1 1 1 1 1 1 1 1 1 1 1 1 1 1 1 1 1 1 1 1 1 1 1 1 1 1 1 0 0 0 0 -0 -1
2 2 2 2 1 1 1 1 1 1 1 1 1 1 1 1 1 1 1 1 1 1 1 1 1 1 1 1 0 0 0 0 0 -0 0 0 -0 -0 -0 -0 -1 -1 -1
1 1 1 1 1 1 1 1 1 1 1 0 0 0 1 1 1 1 0 0 0 0 0 0 0 0 0 0 0 -0 -0 -1 -1 -1 -1 -1 -1 -1 -1 -1 -1 -1 -2
1 1 1 0 0 0 0 -0 -0 0 -0 -0 -0 -0 -0 0 0 -0 -0 -0 -0 -0 -0 -0 -0 -0 -0 -0 -1 -1 -1 -1 -1 -1 -1 -1 -1 -1 -2 -2 -2 -2 -2
0 0 0 -0 -0 -0 -0 -0 -1 -1 -1 -1 -1 -1 -1 -1 -1 -1 -1 -1 -1 -1 -1 -1 -1 -1 -1 -1 -1 -1 -1 -1 -1 -1 -2 -2 -2 -2 -2 -2 -3 -3 -3
-0 -0 -1 -1 -1 -1 -1 -1 -1 -1 -1 -1 -1 -1 -1 -1 -1 -1 -1 -1 -1 -1 -1 -1 -1 -2 -2 -2 -2 -2 -2 -2 -2 -2 -2 -2 -3 -3 -3 -3 -3 -4 -4
-1 -1 -1 -1 -1 -1 -1 -1 -1 -1 -1 -1 -1 -2 -2 -2 -2 -2 -2 -2 -2 -2 -2 -2 -2 -3 -3 -3 -3 -3 -3 -3 -3 -3 -3 -3 -3 -3 -4 -4 -4 -4 -4
-1 -2 -2 -2 -2 -2 -2 -2 -2 -2 -2 -2 -2 -2 -2 -2 -2 -2 -2 -2 -3 -3 -3 -3 -3 -3 -3 -3 -3 -3 -3 -3 -3 -4 -4 -4 -4 -4 -4 -4 -4 -5 -5
-2 -2 -2 -2 -2 -2 -3 -3 -3 -3 -3 -3 -3 -3 -3 -3 -3 -3 -3 -3 -3 -3 -4 -4 -4 -4 -4 -4 -4 -4 -4 -4 -4 -4 -4 -4 -4 -4 -5 -5 -5 -5 -5
-3 -3 -3 -3 -3 -3 -3 -3 -3 -4 -4 -4 -4 -4 -4 -4 -4 -4 -4 -4 -4 -4 -4 -4 -4 -4 -4 -4 -4 -4 -4 -5 -5 -5 -5 -5 -5 -5 -5 -5 -5 -5 -5
-3 -3 -3 -4 -4 -4 -4 -4 -4 -4 -4 -5 -5 -5 -5 -5 -5 -5 -5 -5 -5 -5 -5 -5 -5 -5 -5 -5 -5 -5 -5 -5 -5 -5 -5 -5 -5 -5 -5 -5 -5 -6 -6
-4 -4 -4 -4 -4 -5 -5 -5 -5 -5 -5 -5 -5 -5 -5 -5 -5 -5 -5 -5 -5 -5 -5 -5 -5 -5 -5 -5 -5 -5 -5 -5 -5 -5 -5 -6 -6 -6 -6 -6 -6 -6 -6
-5 -5 -5 -5 -5 -5 -5 -6 -6 -6 -6 -6 -6 -6 -6 -6 -6 -6 -6 -6 -6 -6 -6 -6 -6 -6 -6 -6 -6 -6 -6 -6 -6 -6 -6 -6 -6 -6 -6 -6 -6 -7 -7
-5 -6 -6 -6 -6 -6 -6 -6 -6 -6 -6 -6 -6 -6 -6 -6 -6 -6 -6 -6 -6 -6 -6 -6 -6 -6 -6 -6 -6 -6 -6 -6 -6 -6 -6 -6 -6 -6 -7 -7 -7 -7 -7
-6 -6 -6 -6 -6 -7 -7 -7 -7 -7 -7 -7 -7 -7 -7 -7 -7 -7 -7 -7 -7 -7 -7 -6 -6 -6 -6 -6 -6 -6 -6 -6 -6 -6 -6 -6 -7 -7 -7 -7 -7 -7 -7
-7 -7 -7 -7 -7 -7 -7 -7 -7 -7 -7 -7 -7 -7 -7 -7 -7 -7 -7 -7 -7 -7 -7 -7 -7 -7 -6 -6 -6 -6 -7 -7 -7 -7 -7 -7 -7 -7 -7 -7 -7 -8 -8
-7 -7 -7 -7 -8 -8 -8 -8 -8 -8 -8 -8 -7 -7 -7 -7 -7 -7 -7 -7 -7 -7 -7 -7 -7 -7 -7 -7 -7 -7 -7 -7 -7 -7 -7 -7 -7 -7 -8 -8 -8 -8 -8
Wind_Speed
4 4 4 4 4 4 4 4 3 3 3 4 4 4 5 5 5 5 5 6 6 6 6 7 6 5 4 4 4 4 4 4 4 3 3 3 4 5 5 6 6 6 7
4 4 4 4 4 4 4 4 3 3 3 4 4 5 5 5 5 6 6 5 6 6 6 6 6 5 5 5 4 5 5 4 4 5 3 3 4 5 4 5 4 5 6
4 4 4 4 4 4 4 3 3 3 4 4 5 5 5 5 5 5 6 6 6 5 6 6 6 6 6 5 5 5 4 4 4 4 3 2 3 3 3 3 4 4 5
4 4 4 4 4 4 3 3 3 3 3 4 4 5 5 5 5 5 5 5 5 5 5 5 6 7 7 6 5 5 4 4 4 4 3 3 3 3 3 3 3 4 4
4 4 4 4 3 3 3 3 3 3 3 3 3 3 4 4 5 5 5 5 5 5 5 5 5 6 6 5 5 5 5 5 4 4 4 3 4 3 4 3 4 3 4
4 4 3 3 3 3 3 3 3 2 2 2 3 3 4 4 5 6 5 5 5 5 5 5 5 5 6 6 6 6 6 6 6 5 5 6 6 5 4 4 4 3 3
4 4 3 3 3 3 2 2 2 2 2 2 2 2 3 3 5 6 6 4 5 5 5 5 4 4 5 5 6 6 6 7 7 7 7 7 6 6 5 6 6 5 4
4 3 3 3 3 2 2 2 2 1 1 1 1 1 2 2 3 4 5 4 4 5 5 5 5 5 5 5 5 5 6 6 7 7 7 7 6 5 6 6 5 3 2
4 4 3 3 3 3 2 2 1 1 1 1 1 1 1 2 2 3 3 3 3 4 4 5 5 5 6 6 6 5 5 4 4 6 6 6 6 7 6 4 4 3 3
4 3 3 3 3 3 2 1 1 1 1 1 0 1 1 1 1 2 2 2 3 2 3 3 5 6 6 7 6 6 6 5 4 3 4 4 5 5 7 6 5 5 3
3 3 3 3 3 2 2 1 1 1 1 1 1 0 0 0 0 2 2 1 2 2 2 3 3 6 6 7 7 6 6 4 4 4 4 3 3 3 4 4 4 4 4
3 3 3 3 2 2 2 2 2 2 2 1 1 0 1 1 1 0 0 0 1 2 3 2 2 4 5 6 5 5 5 4 3 3 3 3 3 3 3 3 3 2 2
3 3 3 2 2 2 2 2 2 1 1 1 1 0 1 1 1 1 1 1 1 1 1 1 2 3 3 3 4 4 4 4 4 4 4 3 3 3 2 2 1 1 1
3 3 3 3 2 2 2 2 1 1 1 1 0 0 1 1 1 1 1 1 1 1 0 0 1 1 1 1 1 2 2 3 3 3 3 2 2 2 2 2 2 2 1
3 3 2 2 2 2 2 2 1 1 0 0 0 0 1 1 1 2 1 1 1 1 1 0 0 0 0 1 1 1 1 2 2 2 2 2 2 2 2 2 2 3 3
3 2 2 2 2 2 2 3 4 3 4 3 2 1 1 2 2 2 2 2 2 0 1 0 1 1 1 2 2 2 2 2 2 2 2 3 3 3 3 3 3 3 3
3 2 2 2 2 2 2 1 2 4 5 4 4 3 2 2 2 2 1 1 1 1 0 1 1 2 2 2 2 2 2 2 1 2 2 3 3 3 3 3 4 4 4
3 3 2 2 1 1 1 1 1 1 2 3 3 4 4 3 3 2 2 2 1 1 1 1 1 2 2 2 2 2 2 1 1 2 2 2 3 3 4 4 4 4 4
3 2 2 2 1 1 1 1 1 1 1 2 2 3 4 4 4 3 2 1 1 1 1 1 1 1 2 2 2 2 2 2 2 2 2 3 3 4 4 4 4 5 4
3 4 2 2 1 1 1 1 1 1 1 2 2 2 3 3 2 2 2 2 1 2 2 2 2 2 2 2 2 2 2 2 3 3 3 3 3 4 4 4 4 4 4
2 2 3 2 2 2 1 1 1 1 2 2 2 3 4 2 2 2 2 2 2 2 2 2 2 2 3 3 2 3 3 3 3 3 3 3 3 3 3 4 4 4 4
2 2 2 2 2 2 2 2 2 2 2 2 2 3 4 2 2 2 2 2 3 3 3 3 3 3 3 3 3 3 3 4 4 3 4 3 3 3 4 4 4 4 4
2 2 2 2 2 2 2 2 2 2 2 2 3 3 3 3 3 3 3 3 3 3 3 3 3 3 3 4 4 4 4 4 4 4 4 4 4 4 4 4 4 4 4
2 2 2 2 2 2 2 2 2 2 2 3 3 3 3 3 3 3 4 4 4 3 4 3 4 5 6 5 5 5 5 5 5 5 5 5 4 4 4 4 4 5 5
2 2 2 2 2 2 2 2 2 2 2 3 3 3 3 3 3 4 3 4 4 4 5 5 4 5 6 6 6 6 6 7 7 5 5 5 5 5 4 4 4 4 4
2 2 2 2 2 2 2 2 3 3 3 3 3 3 3 4 4 4 4 4 4 4 5 5 5 6 7 6 6 7 7 7 7 7 6 4 4 4 4 4 5 5 5
Wind_Direction
217 208 203 198 198 196 197 207 210 214 215 212 215 214 207 202 202 206 209 206 206 202 201 207 210 208 209 208 210 215 224 231 239 253 239 227 224 227 221 224 230 228 226
214 208 209 200 192 193 193 197 201 211 216 218 216 214 212 206 203 208 207 206 208 205 204 207 209 206 212 212 212 215 222 225 228 238 245 235 236 232 233 222 227 233 236
214 205 211 205 196 195 194 194 200 207 209 213 213 212 212 209 204 208 209 208 211 210 209 210 210 208 212 215 216 215 219 221 226 226 239 248 252 235 238 238 238 243 246
215 211 211 205 200 197 196 197 203 208 209 211 212 212 213 211 206 206 210 209 212 216 217 216 216 216 215 212 215 217 215 212 213 217 226 237 240 238 233 236 239 242 253
208 210 210 202 193 189 192 197 200 204 213 216 211 214 213 209 206 201 205 209 213 217 218 219 221 219 219 218 215 213 212 215 213 217 225 229 226 224 225 226 238 245 257
209 206 199 188 180 182 186 190 196 197 203 207 210 217 217 216 197 197 203 207 211 214 216 217 215 212 212 218 223 224 224 223 220 222 231 232 233 233 227 224 232 242 253
209 196 185 175 175 182 184 187 193 196 193 207 223 228 231 218 195 199 201 206 210 215 217 217 218 217 215 217 218 223 234 239 236 232 233 237 239 231 222 223 227 233 248
198 190 184 176 177 181 183 191 197 196 193 210 230 253 248 231 200 199 196 208 214 217 218 220 218 218 217 214 218 226 233 236 235 237 241 245 247 235 225 226 229 231 251
191 191 187 183 179 182 187 192 191 193 196 219 229 238 248 236 186 184 199 209 211 218 223 221 219 222 213 210 217 227 234 241 236 233 241 245 241 233 218 200 192 201 232
197 192 183 181 181 182 185 183 182 187 192 187 227 250 252 259 193 190 200 212 209 213 223 225 223 225 216 214 224 227 229 234 228 229 230 231 232 221 209 211 204 206 221
190 176 173 175 177 176 168 160 150 144 142 142 156 210 306 349 161 185 208 224 212 213 225 231 225 214 223 226 232 234 231 231 234 232 232 229 225 215 211 218 216 210 216
168 163 162 159 149 146 145 143 139 135 136 138 129 60 12 34 31 72 166 299 258 229 238 242 234 214 228 231 233 225 218 223 227 225 226 226 223 218 211 210 210 222 239
150 146 139 128 122 128 132 133 131 135 141 147 152 107 352 356 9 22 32 31 324 281 253 238 243 225 228 226 211 215 219 221 215 219 225 228 225 213 197 182 176 160 106
133 125 119 117 106 102 111 124 140 154 155 157 164 297 334 343 359 9 7 17 33 26 11 138 186 214 200 202 209 219 230 230 225 227 229 221 195 181 190 189 193 184 202
117 108 102 102 103 92 79 64 67 40 37 166 213 254 266 286 321 341 338 342 345 325 334 7 21 351 238 218 234 240 231 223 228 223 210 202 196 192 193 187 196 201 221
106 97 97 97 96 91 82 61 48 41 33 27 18 355 340 340 334 332 348 358 358 32 23 217 251 256 250 238 234 237 242 234 229 218 211 207 202 199 198 196 201 210 218
94 88 87 85 86 85 86 83 58 45 45 38 33 27 18 13 8 356 355 4 1 1 320 245 251 252 260 249 244 246 252 248 235 221 216 211 203 202 204 208 208 212 220
73 68 66 70 75 76 76 73 73 59 32 23 25 30 32 36 29 20 22 27 3 338 313 289 282 279 280 271 256 255 255 250 238 232 224 216 211 211 215 215 212 214 220
60 55 53 54 55 53 50 44 44 35 20 13 17 21 24 27 28 30 29 19 345 317 314 311 305 295 288 281 264 256 252 251 245 237 232 222 217 216 220 219 218 213 221
59 51 44 45 45 41 37 34 25 16 9 3 357 353 357 2 4 3 4 355 340 325 320 316 312 303 297 289 271 261 254 250 243 238 237 230 226 222 221 220 219 218 224
48 46 38 36 36 28 21 12 358 351 345 339 337 344 347 341 333 330 331 329 323 317 311 307 306 303 298 293 275 261 257 254 249 243 239 234 226 224 224 224 225 223 225
36 30 26 27 19 13 3 353 344 336 332 329 331 337 339 332 320 318 319 318 316 312 310 303 297 294 289 282 270 260 257 257 253 245 239 234 227 223 222 222 222 224 221
33 28 18 8 2 355 348 341 333 327 326 325 323 322 323 320 316 313 312 313 312 310 309 301 292 289 289 285 274 261 258 257 255 248 241 237 230 225 224 222 221 225 224
17 9 357 347 342 335 330 326 323 320 317 314 313 313 313 313 310 309 308 308 307 305 302 296 289 288 288 287 279 270 264 262 259 250 239 233 228 223 219 219 223 223 225
2 355 346 335 329 325 322 318 315 311 308 307 306 307 307 305 304 304 304 303 300 296 297 296 291 287 285 284 281 277 270 264 261 254 238 228 224 221 217 218 219 220 221
353 345 335 327 321 315 310 307 304 303 302 303 301 298 298 297 297 298 298 298 299 297 294 291 288 289 289 287 284 281 276 268 262 257 246 231 221 220 215 215 213 215 217
Height
1459 1460 1460 1460 1461 1462 1462 1463 1464 1465 1465 1466 1467 1469 1470 1472 1473 1474 1475 1477 1478 1480 1482 1483 1485 1487 1489 1490 1492 1493 1494 1496 1495 1496 1497 1498 1499 1499 1500 1501 1502 1502 1502
1457 1457 1457 1458 1458 1459 1459 1460 1461 1462 1463 1464 1465 1466 1467 1468 1469 1471 1472 1473 1474 1476 1477 1479 1481 1483 1484 1486 1487 1488 1490 1491 1492 1491 1492 1493 1494 1495 1496 1496 1497 1497 1498
1454 1454 1454 1455 1455 1455 1456 1457 1458 1459 1460 1461 1462 1463 1464 1465 1466 1467 1468 1469 1470 1472 1473 1475 1477 1479 1480 1481 1483 1484 1485 1486 1487 1487 1488 1489 1490 1490 1491 1491 1492 1493 1493
1451 1451 1451 1451 1452 1452 1453 1454 1455 1456 1457 1458 1458 1459 1460 1461 1462 1464 1465 1465 1467 1468 1470 1471 1473 1474 1475 1477 1478 1479 1481 1482 1483 1483 1484 1485 1485 1486 1486 1487 1487 1488 1488
1448 1448 1448 1448 1449 1449 1450 1451 1452 1453 1454 1455 1455 1456 1457 1458 1459 1460 1461 1462 1463 1464 1466 1467 1469 1470 1471 1473 1474 1475 1476 1477 1478 1479 1480 1480 1481 1481 1482 1482 1483 1483 1482
1445 1445 1445 1445 1446 1447 1447 1448 1449 1450 1451 1452 1452 1453 1454 1454 1455 1456 1457 1458 1459 1460 1461 1463 1464 1466 1467 1469 1470 1471 1472 1473 1474 1474 1475 1476 1476 1477 1478 1478 1478 1477 1477
1442 1442 1442 1443 1443 1444 1445 1446 1447 1447 1448 1448 1449 1449 1450 1451 1452 1453 1454 1455 1455 1456 1457 1459 1460 1461 1463 1464 1465 1466 1468 1469 1470 1471 1471 1471 1472 1472 1473 1473 1473 1473 1472
1439 1439 1440 1440 1441 1442 1443 1443 1444 1444 1445 1445 1446 1446 1446 1447 1448 1449 1450 1451 1452 1453 1454 1455 1456 1457 1459 1460 1461 1462 1463 1464 1465 1466 1466 1466 1467 1468 1469 1469 1468 1468 1467
1436 1437 1437 1438 1439 1439 1440 1441 1441 1442 1442 1443 1443 1444 1444 1444 1445 1446 1447 1448 1448 1449 1451 1452 1453 1454 1455 1457 1458 1458 1459 1459 1460 1461 1461 1461 1462 1463 1464 1464 1463 1463 1462
1433 1434 1435 1436 1437 1437 1438 1439 1439 1440 1440 1441 1441 1442 1442 1442 1443 1443 1444 1445 1445 1446 1447 1448 1450 1451 1452 1453 1453 1454 1454 1455 1456 1456 1456 1457 1457 1458 1458 1459 1458 1458 1458
1431 1432 1433 1434 1435 1435 1436 1437 1437 1438 1438 1439 1439 1440 1440 1440 1440 1441 1441 1442 1442 1443 1444 1445 1446 1447 1448 1449 1449 1450 1450 1451 1451 1452 1451 1452 1452 1453 1453 1454 1454 1454 1454
1429 1430 1431 1432 1433 1433 1434 1435 1435 1436 1436 1437 1437 1437 1438 1438 1438 1438 1438 1439 1440 1440 1440 1441 1442 1443 1444 1444 1445 1445 1446 1447 1447 1447 1447 1447 1448 1448 1449 1449 1449 1449 1449
1428 1428 1429 1430 1431 1432 1432 1433 1433 1434 1434 1435 1435 1435 1435 1435 1436 1436 1436 1436 1437 1437 1437 1438 1439 1439 1440 1440 1441 1442 1442 1442 1442 1443 1443 1443 1443 1444 1444 1445 1445 1445 1445
1427 1427 1428 1429 1429 1430 1431 1431 1432 1432 1433 1433 1433 1433 1433 1433 1433 1434 1434 1434 1434 1434 1434 1435 1436 1436 1436 1437 1437 1438 1438 1438 1439 1439 1439 1439 1439 1439 1440 1441 1441 1441 1441
1425 1426 1427 1427 1428 1429 1429 1430 1431 1431 1432 1432 1431 1432 1431 1431 1432 1432 1432 1432 1432 1432 1432 1432 1432 1433 1433 1434 1434 1434 1434 1435 1435 1435 1435 1435 1435 1435 1436 1437 1437 1437 1438
1425 1425 1426 1426 1427 1427 1428 1429 1429 1430 1430 1430 1430 1430 1430 1430 1430 1430 1430 1430 1430 1430 1430 1430 1430 1430 1431 1431 1431 1431 1431 1431 1431 1431 1431 1432 1432 1432 1433 1433 1433 1434 1434
1424 1425 1425 1426 1426 1427 1427 1428 1428 1429 1429 1429 1428 1428 1428 1428 1428 1428 1428 1428 1428 1428 1428 1428 1428 1428 1428 1428 1428 1428 1428 1428 1428 1428 1428 1428 1429 1429 1430 1430 1430 1430 1430
1425 1425 1425 1425 1426 1426 1427 1427 1427 1427 1427 1427 1427 1427 1427 1426 1426 1426 1426 1426 1426 1426 1426 1426 1425 1425 1425 1425 1425 1425 1425 1425 1425 1425 1425 1425 1426 1426 1426 1426 1426 1426 1426
1425 1425 1425 1425 1425 1425 1426 1426 1426 1426 1426 1426 1426 1426 1426 1425 1425 1425 1425 1424 1424 1424 1424 1423 1423 1423 1423 1423 1423 1422 1422 1422 1422 1422 1422 1422 1423 1423 1423 1423 1423 1423 1423
1425 1425 1425 1425 1425 1425 1425 1425 1425 1425 1425 1425 1425 1424 1424 1424 1423 1423 1423 1422 1422 1422 1421 1421 1421 1421 1420 1420 1420 1419 1419 1419 1419 1419 1419 1419 1419 1419 1419 1419 1419 1419 1419
1425 1425 1425 1424 1424 1424 1424 1424 1424 1423 1423 1423 1423 1423 1423 1422 1421 1421 1421 1420 1420 1420 1419 1419 1418 1418 1417 1417 1417 1416 1416 1416 1416 1416 1415 1415 1415 1415 1415 1415 1416 1416 1416
1424 1424 1424 1424 1423 1423 1423 1423 1423 1422 1422 1422 1421 1421 1421 1421 1420 1419 1419 1418 1418 1417 1417 1416 1415 1415 1414 1414 1414 1413 1413 1412 1412 1412 1412 1411 1411 1411 1412 1412 1412 1412 1412
1424 1423 1423 1423 1423 1423 1422 1422 1422 1421 1421 1420 1420 1419 1419 1418 1418 1417 1417 1416 1415 1415 1414 1413 1412 1412 1411 1411 1410 1409 1409 1409 1408 1408 1408 1408 1407 1408 1408 1408 1408 1409 1409
1423 1423 1423 1422 1422 1422 1421 1421 1420 1420 1419 1419 1418 1418 1417 1416 1416 1415 1414 1413 1413 1412 1411 1410 1409 1408 1407 1407 1406 1406 1405 1405 1404 1404 1404 1404 1404 1404 1404 1404 1405 1405 1405
1422 1421 1421 1421 1420 1420 1420 1419 1419 1418 1417 1417 1416 1415 1415 1414 1413 1412 1411 1410 1409 1408 1407 1406 1405 1404 1404 1403 1402 1401 1401 1401 1400 1400 1400 1400 1400 1400 1401 1401 1401 1402 1402
1420 1420 1419 1419 1419 1418 1418 1417 1417 1416 1415 1414 1414 1413 1412 1411 1410 1409 1408 1407 1406 1405 1404 1403 1402 1401 1400 1399 1398 1398 1397 1397 1396 1396 1396 1396 1396 1397 1397 1397 1398 1398 1399